| Back to River Map | <<< Previous Forecast Point | | | Next Forecast Point >>> | Printer Version | Graph Version |  |
|
ELDER CREEK - PASKENTA (EDCC1)
| Latitude: 40.02º N | Longitude: 122.51º W | Elevation: 718 Feet | | Forecast Type: Unofficial Location |
| Location: Tehama County in California | Bulletin Group: Upper Sacramento | River Group: Upper Sacramento |
| Issuance Time: | May 03 2026 at 7:37 AM PDT | Next Issuance: | May 04 2026 at 9:00 AM PDT
| |
| Action/Monitor: N/A | Minor Flood: N/A | Moderate Flood: N/A | Major Flood: N/A |
# Tabular Observed and Forecast Hydrograph Information
#
# Location: Elder Creek - Paskenta (EDCC1)
#
# File Generation Time: 05/03/2026 at 07:39 AM PDT
# Data Interval: 1 Hour
#
# Most Recent Date & Time of Maximum Observed: 04/28/2026 at 09:00 AM PDT
# Maximum Observed Stage: 1.82 Feet
# Maximum Observed Flow: 96 cfs
#
# Earliest Date & Time of Maximum Forecast: 05/03/2026 at 08:00 AM PDT
# Maximum Forecast Stage: 1.67 Feet
# Maximum Forecast Flow: 69 cfs
#
# OBSERVED
#
# Date & Time (Local) Stage (Feet) Flow (cfs) Trend Observed Status
# ---------------------------------------------------------------------------------
04/28/2026 07 AM PDT 1.82 96 Not Applicable
04/28/2026 08 AM PDT 1.82 96 0 Not Applicable
04/28/2026 09 AM PDT 1.82 96 0 Not Applicable
04/28/2026 10 AM PDT 1.81 94 - Not Applicable
04/28/2026 11 AM PDT 1.81 94 0 Not Applicable
04/28/2026 12 PM PDT 1.81 94 0 Not Applicable
04/28/2026 01 PM PDT 1.81 94 0 Not Applicable
04/28/2026 02 PM PDT 1.80 92 - Not Applicable
04/28/2026 03 PM PDT 1.79 90 - Not Applicable
04/28/2026 04 PM PDT 1.79 90 0 Not Applicable
04/28/2026 05 PM PDT 1.79 90 0 Not Applicable
04/28/2026 06 PM PDT 1.78 88 - Not Applicable
04/28/2026 07 PM PDT 1.78 88 0 Not Applicable
04/28/2026 08 PM PDT 1.78 88 0 Not Applicable
04/28/2026 09 PM PDT 1.78 88 0 Not Applicable
04/28/2026 10 PM PDT 1.78 88 0 Not Applicable
04/28/2026 11 PM PDT 1.77 87 - Not Applicable
04/29/2026 12 AM PDT 1.77 87 0 Not Applicable
04/29/2026 01 AM PDT 1.78 88 + Not Applicable
04/29/2026 02 AM PDT 1.77 87 - Not Applicable
04/29/2026 03 AM PDT 1.78 88 + Not Applicable
04/29/2026 04 AM PDT 1.78 88 0 Not Applicable
04/29/2026 05 AM PDT 1.78 88 0 Not Applicable
04/29/2026 06 AM PDT 1.78 88 0 Not Applicable
04/29/2026 07 AM PDT 1.78 88 0 Not Applicable
04/29/2026 08 AM PDT 1.78 88 0 Not Applicable
04/29/2026 09 AM PDT 1.78 88 0 Not Applicable
04/29/2026 10 AM PDT 1.78 88 0 Not Applicable
04/29/2026 11 AM PDT 1.77 87 - Not Applicable
04/29/2026 12 PM PDT 1.77 87 0 Not Applicable
04/29/2026 01 PM PDT 1.77 87 0 Not Applicable
04/29/2026 02 PM PDT 1.77 87 0 Not Applicable
04/29/2026 03 PM PDT 1.77 87 0 Not Applicable
04/29/2026 04 PM PDT 1.76 85 - Not Applicable
04/29/2026 05 PM PDT 1.75 83 - Not Applicable
04/29/2026 06 PM PDT 1.75 83 0 Not Applicable
04/29/2026 07 PM PDT 1.75 83 0 Not Applicable
04/29/2026 08 PM PDT 1.73 79 - Not Applicable
04/29/2026 09 PM PDT 1.73 79 0 Not Applicable
04/29/2026 10 PM PDT 1.73 79 0 Not Applicable
04/29/2026 11 PM PDT 1.75 83 + Not Applicable
04/30/2026 12 AM PDT 1.73 79 - Not Applicable
04/30/2026 01 AM PDT 1.75 83 + Not Applicable
04/30/2026 02 AM PDT 1.75 83 0 Not Applicable
04/30/2026 03 AM PDT 1.73 79 - Not Applicable
04/30/2026 04 AM PDT 1.75 83 + Not Applicable
04/30/2026 05 AM PDT 1.75 83 0 Not Applicable
04/30/2026 06 AM PDT 1.75 83 0 Not Applicable
04/30/2026 07 AM PDT 1.75 83 0 Not Applicable
04/30/2026 08 AM PDT 1.75 83 0 Not Applicable
04/30/2026 09 AM PDT 1.75 83 0 Not Applicable
04/30/2026 10 AM PDT 1.75 83 0 Not Applicable
04/30/2026 11 AM PDT 1.75 83 0 Not Applicable
04/30/2026 12 PM PDT 1.75 83 0 Not Applicable
04/30/2026 01 PM PDT 1.73 79 - Not Applicable
04/30/2026 02 PM PDT 1.73 79 0 Not Applicable
04/30/2026 03 PM PDT 1.72 78 - Not Applicable
04/30/2026 04 PM PDT 1.72 78 0 Not Applicable
04/30/2026 05 PM PDT 1.71 76 - Not Applicable
04/30/2026 06 PM PDT 1.71 76 0 Not Applicable
04/30/2026 07 PM PDT 1.70 74 - Not Applicable
04/30/2026 08 PM PDT 1.71 76 + Not Applicable
04/30/2026 09 PM PDT 1.71 76 0 Not Applicable
04/30/2026 10 PM PDT 1.71 76 0 Not Applicable
04/30/2026 11 PM PDT 1.70 74 - Not Applicable
05/01/2026 12 AM PDT 1.70 74 0 Not Applicable
05/01/2026 01 AM PDT 1.70 74 0 Not Applicable
05/01/2026 02 AM PDT 1.70 74 0 Not Applicable
05/01/2026 03 AM PDT 1.71 76 + Not Applicable
05/01/2026 04 AM PDT 1.71 76 0 Not Applicable
05/01/2026 05 AM PDT 1.71 76 0 Not Applicable
05/01/2026 06 AM PDT 1.71 76 0 Not Applicable
05/01/2026 07 AM PDT 1.71 76 0 Not Applicable
05/01/2026 08 AM PDT 1.71 76 0 Not Applicable
05/01/2026 09 AM PDT 1.71 76 0 Not Applicable
05/01/2026 10 AM PDT 1.71 76 0 Not Applicable
05/01/2026 11 AM PDT 1.71 76 0 Not Applicable
05/01/2026 12 PM PDT 1.71 76 0 Not Applicable
05/01/2026 01 PM PDT 1.70 74 - Not Applicable
05/01/2026 02 PM PDT 1.70 74 0 Not Applicable
05/01/2026 03 PM PDT 1.70 74 0 Not Applicable
05/01/2026 04 PM PDT 1.70 74 0 Not Applicable
05/01/2026 05 PM PDT 1.69 73 - Not Applicable
05/01/2026 06 PM PDT 1.69 73 0 Not Applicable
05/01/2026 07 PM PDT 1.68 71 - Not Applicable
05/01/2026 08 PM PDT 1.68 71 0 Not Applicable
05/01/2026 09 PM PDT 1.68 71 0 Not Applicable
05/01/2026 10 PM PDT 1.68 71 0 Not Applicable
05/01/2026 11 PM PDT 1.68 71 0 Not Applicable
05/02/2026 12 AM PDT 1.68 71 0 Not Applicable
05/02/2026 01 AM PDT 1.68 71 0 Not Applicable
05/02/2026 02 AM PDT 1.68 71 0 Not Applicable
05/02/2026 03 AM PDT 1.68 71 0 Not Applicable
05/02/2026 04 AM PDT 1.69 73 + Not Applicable
05/02/2026 05 AM PDT 1.69 73 0 Not Applicable
05/02/2026 06 AM PDT 1.69 73 0 Not Applicable
05/02/2026 07 AM PDT 1.69 73 0 Not Applicable
05/02/2026 08 AM PDT 1.69 73 0 Not Applicable
05/02/2026 09 AM PDT 1.69 73 0 Not Applicable
05/02/2026 10 AM PDT 1.69 73 0 Not Applicable
05/02/2026 11 AM PDT 1.69 73 0 Not Applicable
05/02/2026 12 PM PDT 1.69 73 0 Not Applicable
05/02/2026 01 PM PDT 1.69 73 0 Not Applicable
05/02/2026 02 PM PDT 1.68 71 - Not Applicable
05/02/2026 03 PM PDT 1.68 71 0 Not Applicable
05/02/2026 04 PM PDT 1.68 71 0 Not Applicable
05/02/2026 05 PM PDT 1.67 69 - Not Applicable
05/02/2026 06 PM PDT 1.67 69 0 Not Applicable
05/02/2026 07 PM PDT 1.66 68 - Not Applicable
05/02/2026 08 PM PDT 1.66 68 0 Not Applicable
05/02/2026 09 PM PDT 1.66 68 0 Not Applicable
05/02/2026 10 PM PDT 1.66 68 0 Not Applicable
05/02/2026 11 PM PDT 1.66 68 0 Not Applicable
05/03/2026 12 AM PDT 1.66 68 0 Not Applicable
05/03/2026 01 AM PDT 1.66 68 0 Not Applicable
05/03/2026 02 AM PDT 1.66 68 0 Not Applicable
05/03/2026 03 AM PDT 1.66 68 0 Not Applicable
05/03/2026 04 AM PDT 1.66 68 0 Not Applicable
05/03/2026 05 AM PDT 1.66 68 0 Not Applicable
05/03/2026 06 AM PDT 1.67 69 + Not Applicable
05/03/2026 07 AM PDT 1.67 69 0 Not Applicable
#
# FORECAST
#
# Date & Time (Local) Stage (Feet) Flow (cfs) Trend Forecast Status
# ---------------------------------------------------------------------------------
05/03/2026 08 AM PDT 1.67 69 Not Applicable
05/03/2026 09 AM PDT 1.67 69 0 Not Applicable
05/03/2026 10 AM PDT 1.67 69 0 Not Applicable
05/03/2026 11 AM PDT 1.67 69 0 Not Applicable
05/03/2026 12 PM PDT 1.67 69 0 Not Applicable
05/03/2026 01 PM PDT 1.66 68 - Not Applicable
05/03/2026 02 PM PDT 1.66 68 0 Not Applicable
05/03/2026 03 PM PDT 1.66 68 0 Not Applicable
05/03/2026 04 PM PDT 1.66 68 0 Not Applicable
05/03/2026 05 PM PDT 1.66 68 0 Not Applicable
05/03/2026 06 PM PDT 1.66 68 0 Not Applicable
05/03/2026 07 PM PDT 1.66 68 0 Not Applicable
05/03/2026 08 PM PDT 1.66 68 0 Not Applicable
05/03/2026 09 PM PDT 1.66 68 0 Not Applicable
05/03/2026 10 PM PDT 1.66 68 0 Not Applicable
05/03/2026 11 PM PDT 1.66 68 0 Not Applicable
05/04/2026 12 AM PDT 1.66 68 0 Not Applicable
05/04/2026 01 AM PDT 1.66 68 0 Not Applicable
05/04/2026 02 AM PDT 1.66 68 0 Not Applicable
05/04/2026 03 AM PDT 1.65 66 - Not Applicable
05/04/2026 04 AM PDT 1.65 66 0 Not Applicable
05/04/2026 05 AM PDT 1.65 66 0 Not Applicable
05/04/2026 06 AM PDT 1.65 66 0 Not Applicable
05/04/2026 07 AM PDT 1.65 66 0 Not Applicable
05/04/2026 08 AM PDT 1.65 66 0 Not Applicable
05/04/2026 09 AM PDT 1.65 66 0 Not Applicable
05/04/2026 10 AM PDT 1.65 66 0 Not Applicable
05/04/2026 11 AM PDT 1.65 66 0 Not Applicable
05/04/2026 12 PM PDT 1.65 66 0 Not Applicable
05/04/2026 01 PM PDT 1.65 66 0 Not Applicable
05/04/2026 02 PM PDT 1.65 66 0 Not Applicable
05/04/2026 03 PM PDT 1.65 66 0 Not Applicable
05/04/2026 04 PM PDT 1.65 66 0 Not Applicable
05/04/2026 05 PM PDT 1.65 66 0 Not Applicable
05/04/2026 06 PM PDT 1.65 66 0 Not Applicable
05/04/2026 07 PM PDT 1.66 68 + Not Applicable
05/04/2026 08 PM PDT 1.66 68 0 Not Applicable
05/04/2026 09 PM PDT 1.66 68 0 Not Applicable
05/04/2026 10 PM PDT 1.66 68 0 Not Applicable
05/04/2026 11 PM PDT 1.66 68 0 Not Applicable
05/05/2026 12 AM PDT 1.66 68 0 Not Applicable
05/05/2026 01 AM PDT 1.66 68 0 Not Applicable
05/05/2026 02 AM PDT 1.66 68 0 Not Applicable
05/05/2026 03 AM PDT 1.66 68 0 Not Applicable
05/05/2026 04 AM PDT 1.66 68 0 Not Applicable
05/05/2026 05 AM PDT 1.66 68 0 Not Applicable
05/05/2026 06 AM PDT 1.66 68 0 Not Applicable
05/05/2026 07 AM PDT 1.66 68 0 Not Applicable
05/05/2026 08 AM PDT 1.66 68 0 Not Applicable
05/05/2026 09 AM PDT 1.66 68 0 Not Applicable
05/05/2026 10 AM PDT 1.65 66 - Not Applicable
05/05/2026 11 AM PDT 1.65 66 0 Not Applicable
05/05/2026 12 PM PDT 1.65 66 0 Not Applicable
05/05/2026 01 PM PDT 1.64 64 - Not Applicable
05/05/2026 02 PM PDT 1.64 64 0 Not Applicable
05/05/2026 03 PM PDT 1.64 64 0 Not Applicable
05/05/2026 04 PM PDT 1.64 64 0 Not Applicable
05/05/2026 05 PM PDT 1.63 63 - Not Applicable
05/05/2026 06 PM PDT 1.63 63 0 Not Applicable
05/05/2026 07 PM PDT 1.63 63 0 Not Applicable
05/05/2026 08 PM PDT 1.63 63 0 Not Applicable
05/05/2026 09 PM PDT 1.63 63 0 Not Applicable
05/05/2026 10 PM PDT 1.63 63 0 Not Applicable
05/05/2026 11 PM PDT 1.62 61 - Not Applicable
05/06/2026 12 AM PDT 1.62 61 0 Not Applicable
05/06/2026 01 AM PDT 1.62 61 0 Not Applicable
05/06/2026 02 AM PDT 1.62 61 0 Not Applicable
05/06/2026 03 AM PDT 1.62 61 0 Not Applicable
05/06/2026 04 AM PDT 1.62 61 0 Not Applicable
05/06/2026 05 AM PDT 1.62 61 0 Not Applicable
05/06/2026 06 AM PDT 1.62 61 0 Not Applicable
05/06/2026 07 AM PDT 1.62 61 0 Not Applicable
05/06/2026 08 AM PDT 1.62 61 0 Not Applicable
05/06/2026 09 AM PDT 1.62 61 0 Not Applicable
05/06/2026 10 AM PDT 1.62 61 0 Not Applicable
05/06/2026 11 AM PDT 1.62 61 0 Not Applicable
05/06/2026 12 PM PDT 1.61 60 - Not Applicable
05/06/2026 01 PM PDT 1.61 60 0 Not Applicable
05/06/2026 02 PM PDT 1.61 60 0 Not Applicable
05/06/2026 03 PM PDT 1.61 60 0 Not Applicable
05/06/2026 04 PM PDT 1.61 60 0 Not Applicable
05/06/2026 05 PM PDT 1.61 60 0 Not Applicable
05/06/2026 06 PM PDT 1.61 60 0 Not Applicable
05/06/2026 07 PM PDT 1.61 60 0 Not Applicable
05/06/2026 08 PM PDT 1.61 60 0 Not Applicable
05/06/2026 09 PM PDT 1.61 60 0 Not Applicable
05/06/2026 10 PM PDT 1.61 60 0 Not Applicable
05/06/2026 11 PM PDT 1.61 60 0 Not Applicable
05/07/2026 12 AM PDT 1.61 60 0 Not Applicable
05/07/2026 01 AM PDT 1.61 60 0 Not Applicable
05/07/2026 02 AM PDT 1.61 60 0 Not Applicable
05/07/2026 03 AM PDT 1.60 58 - Not Applicable
05/07/2026 04 AM PDT 1.60 58 0 Not Applicable
05/07/2026 05 AM PDT 1.60 58 0 Not Applicable
05/07/2026 06 AM PDT 1.60 58 0 Not Applicable
05/07/2026 07 AM PDT 1.60 58 0 Not Applicable
05/07/2026 08 AM PDT 1.60 58 0 Not Applicable
05/07/2026 09 AM PDT 1.60 58 0 Not Applicable
05/07/2026 10 AM PDT 1.60 58 0 Not Applicable
05/07/2026 11 AM PDT 1.60 58 0 Not Applicable
05/07/2026 12 PM PDT 1.60 58 0 Not Applicable
05/07/2026 01 PM PDT 1.60 58 0 Not Applicable
05/07/2026 02 PM PDT 1.60 58 0 Not Applicable
05/07/2026 03 PM PDT 1.60 58 0 Not Applicable
05/07/2026 04 PM PDT 1.60 58 0 Not Applicable
05/07/2026 05 PM PDT 1.60 58 0 Not Applicable
05/07/2026 06 PM PDT 1.59 57 - Not Applicable
05/07/2026 07 PM PDT 1.59 57 0 Not Applicable
05/07/2026 08 PM PDT 1.59 57 0 Not Applicable
05/07/2026 09 PM PDT 1.59 57 0 Not Applicable
05/07/2026 10 PM PDT 1.59 57 0 Not Applicable
05/07/2026 11 PM PDT 1.59 57 0 Not Applicable
05/08/2026 12 AM PDT 1.59 57 0 Not Applicable
05/08/2026 01 AM PDT 1.59 57 0 Not Applicable
05/08/2026 02 AM PDT 1.59 57 0 Not Applicable
05/08/2026 03 AM PDT 1.59 57 0 Not Applicable
05/08/2026 04 AM PDT 1.59 57 0 Not Applicable
05/08/2026 05 AM PDT 1.59 57 0 Not Applicable
#
# NOTE 1: Stages are rounded to the nearest hundredth (.01) of a foot.
# NOTE 2: Flows are rounded to the nearest (1) cfs.
# NOTE 3: Trends are determined using hourly change in unrounded stage and flow.
# NOTE 4: Maximum Values are determined using unrounded stage and flow.
|